Member area
Imprimable
Liège, 22/11/2009, BEL - Les 10 Miles du Thier-à-Liège
List of reports > 10 Miles - Result
Search: Page: [1]
114 Entries
 
Complains are not accepted anymore. Results are final.
PlaceNrNameAgeNATTeamRealTimeTkmMoy.ScrCity
1.77DETHIER Gael32BELLE JOUR59:3259:323:44 16.132
2.431AMAR Majid37BELRFCL1:02:491:02:493:56 15.295LIÈGE
3.534RENARD Arnaud24BEL1:04:521:04:534:04 14.807REMICOURT
4.585LEGRAND Olivier35BEL1:05:091:05:094:05 14.748OCQUIER
5.455BRISY Philippe35BELINTERSP1:05:491:05:494:07 14.5910SAINT-GEORGES
6.434CHAKOUATH Hammadi35BEL1:06:081:06:094:09 14.5211
7.555VANBELLINGHEN Jean-Francois35BEL1:06:141:06:174:09 14.4812LIÈGE
8.467GODFROID Jan-Eric35BEL1:06:151:06:174:09 14.4813
9.447WILLAIN Benoit27BELHERV1:07:031:07:044:12 14.3215LIMBOURG
10.458KEUTGENS Mario34BEL1:07:321:07:344:14 14.2116PLOMBIERES
11.695ZOELEN Jeroen33BEL1:08:121:08:144:16 14.0718
12.570NICOLAS Jean-Yves341:08:351:08:394:18 13.9821
13.435VAN DER MEULEN Jérémy19BEL1:08:401:08:434:18 13.9722
14.450CLOSE Pierre34BEL1:08:551:08:584:19 13.9223
15.522NYSSEN Sebastien38BEL1:08:551:08:594:19 13.9224
16.588DEWALLEE Pascal35BEL1:09:161:09:174:20 13.8628
17.45CANISIUS Pierre Olivier37BELLE JOUR1:09:011:09:234:21 13.8429
18.262WARNOTTE Pascal32BELLE JOUR1:09:321:09:344:21 13.8030
19.611LOPEZ-NAVA Didier38BEL1:09:131:09:434:22 13.7731
20.694TER HART Marcel38BEL1:09:471:09:494:22 13.7532
21.539JACQUEMIN Benoit34BEL1:10:041:10:094:24 13.6933
22.89DORTU Patrick27BELLE JOUR1:10:111:10:124:24 13.6834
23.529CARRE Claude39BEL1:10:171:10:214:24 13.6535
24.583COUNE Benoît35BEL1:11:251:11:344:29 13.4237LIEGE
25.162LEPOINT Francois36BELLE JOUR1:11:581:11:594:30 13.3438
26.680ROELANDT Philippe28BEL1:11:461:12:054:31 13.3239ZANDBERGEN
27.461MASSET Claude37BEL1:12:321:12:344:33 13.2340AWANS
28.542DIPEDE Dominique34BEL1:12:381:12:544:34 13.1742
29.701SOMVILLE Pierre-Rene32BEL1:12:491:13:004:34 13.1544
30.438LECLERCQ Philippe32BEL1:13:191:13:274:36 13.0747LIEGE
31.690EVRARD Marc37BEL1:13:301:13:354:36 13.0550WANDRE
32.524DEMADRE Etienne38BEL1:13:291:13:564:38 12.9853LIEGE
33.286AGUS Paolo35BELLE JOUR1:13:551:13:594:38 12.9854
34.691GUILLEMIN Bryan35BEL1:13:571:14:004:38 12.9756PEPINSTER
35.508LAOUREUX Laurent381:14:011:14:064:38 12.9661
36.11MESTREZ Eric34BELLE JOUR1:14:011:14:124:39 12.9464
37.569MATTERN Berti31BEL1:14:141:14:184:39 12.9266CHAUDFONTAINE
38.474JOIRIS Joseph34BEL1:14:181:14:234:39 12.9167LIÈGE
39.58D ATTARDI Olivier38BELLE JOUR1:15:071:15:134:43 12.7774
40.481SERVAIS David30BELENERGY TRI1:15:061:15:164:43 12.7675LIÈGE
41.476MARÉCHAL Philippe35BEL1:15:111:15:214:43 12.7476SOUMAGNE
42.547PIRSON Fabien36BEL1:16:091:16:144:46 12.5982ESNEUX
43.584GHEURY Philippe37BEL1:16:151:16:284:47 12.5684SAINT-GEORGES-SUR-MEUSE
44.441JACOBS Ralph32BEL1:16:341:16:434:48 12.5188
45.65DEJARDIN Frederic38BELLE JOUR1:16:381:16:434:48 12.5189
46.478FRANCOIS Bertrand28BEL1:16:411:16:564:49 12.4890
47.724BASTAGNE Jacques34BEL1:17:281:17:374:52 12.3796
48.495RUYMEN Wouter20BEL1:18:021:18:174:54 12.26101KOZEN
49.726DOCQUIER David23BEL1:17:121:18:344:55 12.22105BOIS-ET-BORSU
50.483DAVID Gerard38BEL1:18:241:18:414:56 12.20106
51.607DEFECHEREUX Fabian38BEL1:18:491:19:014:57 12.15107ESNEUX
52.160LEJEUNE David35BELLE JOUR1:18:501:19:094:57 12.13111
53.489CHENIER Arnaud27BEL1:19:231:19:304:59 12.08116
54.502BRIEN Maarten32BEL1:19:251:19:324:59 12.07117
55.5DARTOIS Fabrice39BELLE JOUR1:19:371:19:444:59 12.04120
56.723PITZ Christophe34BEL1:19:331:19:495:00 12.03121
57.696BRULL Bertrand32BEL1:19:341:19:495:00 12.03122AUBEL
58.226SANGIOVANNI Jean Charles37BELLE JOUR1:19:321:19:525:00 12.02123
59.538CHACON David30BEL1:20:141:20:185:02 11.96127
60.541LORIERS Nicolas25BEL1:20:441:21:005:04 11.85133
61.516PHILIPPOT Valery33BEL1:21:121:21:175:05 11.81135ALLEUR
62.540HUBERT Rachel32BEL1:21:251:21:315:06 11.78137
63.716NICOLAS Corentin23BEL1:21:381:22:005:08 11.71140
64.689GARIN Yves36BEL1:22:331:22:395:10 11.62144LIÈGE
65.407BLESGEN Vincent35BEL1:22:301:22:455:11 11.60145
66.610SAFIN Antoine31BEL1:23:051:23:175:13 11.53150
67.114GILIS Laurent32BELLE JOUR1:23:191:23:295:14 11.50154
68.19BAUTE Benoit39BELLE JOUR1:23:161:23:435:14 11.47157
69.501MICHEL Gilles22BEL1:23:421:23:585:15 11.43158
70.568VENANZI Bruno39BEL1:24:221:24:315:17 11.36164
71.713TIRTIAUX Johan30BEL1:24:261:24:375:18 11.35167
72.564VERJANS Michael33BEL1:24:271:24:415:18 11.34169HERMALLE
73.591JAMOULLE Nicolas321:24:441:24:555:19 11.31174
74.592VERHELST Jean-Mic7hel321:24:441:24:555:19 11.31175
75.685JOASSART Martin31BEL1:24:531:25:165:20 11.26178ARGENTEAU
76.679HENVAUX Jean-Michel37BEL1:25:061:25:245:21 11.24180
77.710ROBERT Laurent34BEL1:26:131:26:315:25 11.10190HOGNOUL
78.705GRIGNARO Sebastien37BEL1:26:021:26:335:25 11.09191
79.675WARNIER Bruno391:26:541:26:545:26 11.05197
80.411COLLIN Frédéric Henri36BEL1:27:161:27:305:29 10.97199STAVELOT
81.692VAN RYMENAM Michael29BEL1:27:301:27:365:29 10.96202
82.119HALLEUX Jean Marie39BELLE JOUR1:27:431:28:075:31 10.90205
83.38BRENNECKE David25BELLE JOUR1:28:421:28:525:34 10.80208
84.470DEWULF Roland36BEL1:28:401:29:075:35 10.77211
85.549PEREE Jean-Francois33BEL1:29:001:29:145:35 10.76213
86.536MORTIER Fabian36BEL1:30:011:30:085:38 10.65222
87.700STOLLENBERG Jordi27BEL1:30:251:30:325:40 10.60227
88.609DIZIER Arnaud29BEL1:30:181:30:345:40 10.60228
89.543VANDERHOOFSTADT Benoit25BEL1:31:211:31:385:44 10.48240
90.678GERMAI Fabrice34BEL1:31:181:31:425:44 10.47241
91.530CURTZ Robert38BEL1:31:191:31:435:44 10.47242
92.686BERNARD Francois30BEL1:31:221:31:445:44 10.47243
93.131HOUARI El Bakay26BELLE JOUR1:32:181:32:215:47 10.40245
94.422COBBEN Sylvain24BEL1:32:311:32:585:49 10.33251BATTICE
95.462D'OVIDIO Raphael33BEL1:32:371:33:015:49 10.32252LIÈGE
96.565DUBOIS Frederic38BEL1:33:211:33:475:52 10.24259LIEGE
97.687BALTUS Renaud35BEL1:33:201:33:475:52 10.24260TEMPLOUX
98.423WILLEM Bernard35BEL1:34:281:34:585:57 10.11264HERMALLE-SOUS-ARGENTEAU
99.721ALBERTO Juarez22BEL1:35:031:35:065:57 10.09265
100.612MOTHET Bernard38BEL1:36:321:36:536:04 9.91271VOTTEM
101.693LESVEUR Lionel37BEL1:37:381:38:066:08 9.79276
102.615DELINCÉ Geoffrey28BEL1:38:231:38:486:11 9.72279MAGNÉE
103.718PARTHOENS Thomas251:39:141:39:376:14 9.64284
104.614THURMES Regis28BEL1:39:511:40:156:16 9.58286CHÊNÉE
105.697MADDELEIN Alexander24BEL1:41:071:41:156:20 9.48290
106.709LEBRUN Frederic36BEL1:42:011:42:246:24 9.38291
107.456LIBERT Philippe37BEL1:48:101:48:286:47 8.85297
108.589D'ATTARDI Fabrice381:48:451:49:046:49 8.80300
109.488FERSONS Pierre20BEL1:53:471:54:087:08 8.41317
DNF40BREVER Jean Francois34BELLE JOUR
DNF620GERARD Olivier38BEL
DNF482LAMBOTTE Stephane35BEL
DNF575LAVIGNE Fabian38BELVISE
DNF2SCHOONBROODT Benoit37BELLE JOUR
DNF: did not finish; DSQ: disqualified; Speed in km/h
Page: [1]